Content
SEND FEEDBACK

Daily
Averages
Monthly
Summary
United States of America

ST. LOUIS - SAINT LOUIS UNIVERSITY, MISSOURI


Home > North America > United States > Missouri
Elevation: 580 feet     Latitude: 38 38N     Longitude: 090 14W

WEATHER
 
SELECT A DAY
Number of Records: 186,434;   Date Range: 1/1/95 - 9/18/14
 
SHARE

PRINT THIS DATA

[ ← Previous Day ]
WEATHER ALMANAC - FEBRUARY 3, 2013
[ Next Day → ]
[ °C ]   °F
Weather ElementAverageHighLow
Temperature29.1 °F33.1 °F (3:53 pm)24.1 °F (7:53 pm)
Dewpoint23.1 °F30.2 °F (12:13 am)14 °F (4:53 pm)
Humidity79.9 %100 % (12:13 am)48 % (3:53 pm)
Barometer30.09 in30.21 in (11:53 am)30.03 in (2:04 am)
Wind Speed6.7 mph24.2 mph (8:53 am)
Wind Gust33.4 mph (9:53 am)
Weather ElementAverage
Visibility6 mi
Wind DirectionSSE (166.8 °)

Weather ElementTotal
Precipitation0.63 in
Heating Degree Days36.4 (Base 65)
Averaged from 40 records on February 3, 2013
WEATHER CONDITIONS BREAKOUT
WIND DIRECTION BREAKOUT
WEATHER BY HOUR - FEBRUARY 3, 2013
[ °C ]   °F
Local TimeTemperatureDewpointHumidityBarometerVisibilityWind DirectionWind SpeedGust SpeedPrecipitationEventsConditions
12:13 AM30.2 °F30.2 °F100 %30.06 in0.2 miCalm0.07 inFog-SnowHeavy Snow
12:37 AM30.2 °F30.2 °F100 %30.06 in0.5 miCalm0.16 inFog-SnowSnow
12:46 AM30.2 °F28.4 °F93 %30.05 in0.5 miCalm0.20 inFog-SnowSnow
12:53 AM30.9 °F28.9 °F92 %30.06 in0.8 miSouth (190°)3.5 mph0.20 inSnowLight Snow
1:00 AM30.2 °F28.4 °F93 %30.04 in1.8 miSouth (190°)3.5 mph0.00 inSnowLight Snow
1:04 AM30.2 °F30.2 °F100 %30.04 in3.0 miSouth (180°)3.5 mph0.00 inSnowLight Snow
1:31 AM30.2 °F28.4 °F93 %30.04 in6.0 miCalm0.00 inOvercast
1:53 AM30.9 °F28.9 °F92 %30.05 in6.0 miCalm0.00 inOvercast
2:04 AM30.2 °F28.4 °F93 %30.03 in5.0 miCalmOvercast
2:19 AM30.2 °F28.4 °F93 %30.03 in1.5 miCalmMostly Cloudy
2:26 AM28.4 °F26.6 °F93 %30.04 in0.2 miCalmFogLight Freezing Fog
2:53 AM26.1 °F25.0 °F96 %30.05 in0.8 miCalmOvercast
3:00 AM28.4 °F26.6 °F93 %30.03 in2.0 miCalmOvercast
3:08 AM28.4 °F26.6 °F93 %30.03 in5.0 miSSW (210°)3.5 mphOvercast
3:43 AM28.4 °F26.6 °F93 %30.03 in1.8 miWSW (250°)4.6 mphOvercast
3:53 AM28.9 °F27.0 °F92 %30.04 in0.8 miVariable3.5 mphOvercast
4:05 AM28.4 °F26.6 °F93 %30.03 in0.2 miWSW (240°)3.5 mphFogLight Freezing Fog
4:13 AM28.4 °F26.6 °F93 %30.03 in0.5 miWSW (250°)4.6 mphFogLight Freezing Fog
4:53 AM26.1 °F25.0 °F96 %30.05 in1.0 miWSW (250°)4.6 mphMist
5:05 AM26.6 °F24.8 °F93 %30.04 in3.0 miWest (260°)4.6 mphScattered Clouds
5:53 AM30.0 °F27.0 °F88 %30.06 in10.0 miWNW (290°)9.2 mphPartly Cloudy
6:53 AM30.0 °F26.1 °F85 %30.07 in10.0 miWNW (300°)12.7 mphClear
7:53 AM30.9 °F24.1 °F76 %30.10 in10.0 miWNW (290°)12.7 mphClear
8:37 AM30.2 °F24.8 °F80 %30.11 in10.0 miWNW (290°)17.3 mph21.9 mphOvercast
8:53 AM30.9 °F23.0 °F72 %30.13 in10.0 miWNW (300°)24.2 mph29.9 mphOvercast
9:53 AM30.0 °F21.0 °F69 %30.17 in9.0 miWNW (290°)21.9 mph33.4 mphOvercast
10:53 AM30.0 °F19.9 °F66 %30.20 in10.0 miWNW (300°)24.2 mph33.4 mphOvercast
11:53 AM30.9 °F17.1 °F57 %30.21 in10.0 miWNW (290°)19.6 mph27.6 mphPartly Cloudy
12:53 PM30.9 °F18.0 °F59 %30.21 in10.0 miNW (310°)19.6 mphClear
1:53 PM32.0 °F17.1 °F54 %30.19 in10.0 miWNW (300°)11.5 mphClear
2:53 PM32.0 °F16.0 °F52 %30.19 in10.0 miNW (310°)13.8 mphClear
3:53 PM33.1 °F15.1 °F48 %30.18 in10.0 miNNW (330°)9.2 mphClear
4:53 PM30.9 °F14.0 °F50 %30.16 in10.0 miWNW (300°)4.6 mphClear
5:53 PM28.0 °F14.0 °F56 %30.16 in10.0 miCalmClear
6:53 PM25.0 °F16.0 °F69 %30.15 in10.0 miCalmClear
7:53 PM24.1 °F16.0 °F71 %30.13 in10.0 miSSE (150°)3.5 mphClear
8:53 PM26.1 °F15.1 °F63 %30.11 in10.0 miSSE (150°)6.9 mphClear
9:53 PM27.0 °F15.1 °F61 %30.09 in10.0 miSSE (150°)6.9 mphClear
10:53 PM27.0 °F17.1 °F66 %30.06 in10.0 miSE (140°)6.9 mphClear
11:53 PM25.0 °F16.0 °F69 %30.04 in10.0 miSSE (160°)3.5 mphClear
Hourly data recorded from KCPS, located miles away from St. Louis - Saint Louis University, Missouri







STORIES FROM OUR PARTNERS